User: anonymous   Login
Location: Fluertsh�userhof
(48.7537°N, 10.3850°E)
Time: 01:12:58
(UTC+00:00)
Language:

Resurs 1-3 - Orbit

View from above orbital plane
View from above orbital plane
View from above satellite
View from above satellite

Ground track
Ground track

The orbit data is extracted from the following two-line orbital elements,

1 23342U 94074A   20335.40230489  .00000212  00000-0  35300-4 0  9991
2 23342  97.9082  21.8630 0001291 131.7971 228.3351 14.79358350404392
Epoch (UTC): 30 November 2020 09:39:19
Eccentricity: 0.0001291
inclination: 97.9082°
perigee height: 630 km
apogee height: 632 km
right ascension of ascending node: 21.8630°
argument of perigee: 131.7971°
revolutions per day: 14.79358350
mean anomaly at epoch: 228.3351°
orbit number at epoch: 40439

The dashed part of the orbit path shows where the satellite is in the earth's shadow,  

DLR